Regional Weather Roundup
Issued by NWS

Home | Current Version | Previous Version | Text Only | Print | Product List | Glossary Off
Versions: 1 2 3 4 5 6 7 8 9 10 11 12 13 14 15 16 17 18 19 20 21 22 23 24 25 26 27 28 29 30 31 32 33 34 35 36 37 38 39 40 41 42 43 44 45 46 47 48 49

000
ASUS45 KBOU 201510
RWRCO

WEATHER ROUNDUP FOR COLORADO
NATIONAL WEATHER SERVICE DENVER/BOULDER CO
900 AM MDT FRI APR 20 2018

NOTE: "FAIR" INDICATES FEW OR NO CLOUDS BELOW 12000 FEET WITH NO
SIGNIFICANT WEATHER AND/OR OBSTRUCTIONS TO VISIBILITY.

COZ001>005-013-030-031-201600-
...NORTHWEST COLORADO...

CITY           SKY/WX    TMP DP  RH WIND       PRES   REMARKS
CRAIG          LGT RAIN  40  36  86 SW8       29.92R
HAYDEN         LGT RAIN  38  36  92 W6        29.92S
MEEKER         CLOUDY    39  34  82 NE6       29.92R
RANGELY        CLOUDY    48  28  44 E15       29.86R
RABBIT EARS PA SNOW      28  28 100 NW9G18    29.95F VSB<1/4 WCI  20
STEAMBOAT SPGS CLOUDY    37  35  92 CALM      29.91S
WALDEN         PTSUNNY   39  19  45 N16       29.90S
$$

COZ006>008-011-201600-
...WEST CENTRAL VALLEYS...

CITY           SKY/WX    TMP DP  RH WIND       PRES   REMARKS
GRAND JUNCTION FAIR      50  31  48 S12       29.84R
MONTROSE       CLOUDY    43  25  49 SW13      29.91R
EAGLE          LGT RAIN  38  34  85 CALM      29.93R
RIFLE          CLOUDY    43  37  79 E8        29.90R
DELTA          PTSUNNY   48  34  58 SE8       29.88R
NUCLA          PTSUNNY   45  12  26 SW13      29.94R
$$

COZ017>023-064>068-201600-
...SOUTHWEST COLORADO...

CITY           SKY/WX    TMP DP  RH WIND       PRES   REMARKS
DURANGO        PTSUNNY   40  25  55 NE10      29.92R
CORTEZ         FAIR      45  14  28 S14       29.91S
PAGOSA SPRINGS LGT SNOW  33  33  99 SE5       29.95F VSB 3/4 WCI  28
TELLURIDE      LGT SNOW  28  26  89 CALM      29.93R
WOLF CREEK PAS SNOW      18  18 100 MISG      29.98F VSB 1/2
$$

COZ009-010-012-014-032>034-037-058>063-201600-
...CENTRAL COLORADO...

CITY           SKY/WX    TMP DP  RH WIND       PRES   REMARKS
ASPEN          SNOW      33  32  96 CALM      29.91S VSB 1/2
BUENA VISTA    LGT SNOW  34  32  94 S5        29.94S WCI  29
COPPER MTN     NOT AVBL
BERTHOUD PASS  CLOUDY    23  14  68 S24G37    30.01R WCI   7
COTTONWOOD PAS SNOW      36  34  93 CALM      29.95S VSB 1/4
GUNNISON       CLOUDY    35  31  85 CALM      29.90F
GRANBY         CLOUDY    38  26  61 SW5       29.89R
KREMMLING      CLOUDY    50  34  53 W9        29.87R
LEADVILLE      FOG       29  29 100 S14       29.91S VSB 1/4 WCI  18
MONARCH PASS   FOG       27  27 100 SE16G24   30.06F VSB<1/4 WCI  14
SALIDA         CLOUDY    36  33  88 E7        30.01R
SUNLIGHT       LGT SNOW  23  23 100 CALM      29.99F
WILKERSON PASS CLOUDY    28  25  86 S6        30.02S WCI  22
$$

COZ069>075-201600-
...SAN LUIS VALLEY/SANGRE DE CRISTO MOUNTAINS...

CITY           SKY/WX    TMP DP  RH WIND       PRES   REMARKS
ALAMOSA        CLOUDY    37  31  78 S3        29.91S
DEL NORTE      FAIR      35  28  75 W13       29.91F WCI  27
LA VETA PASS   SNOW      32  32 100 SW17G29   30.06R VSB 1/4 WCI  21
SAGUACHE       NOT AVBL
$$

COZ035-036-038>040-201600-
...NORTHERN COLORADO FRONT RANGE...

CITY           SKY/WX    TMP DP  RH WIND       PRES   REMARKS
DENVER INTL AP PTSUNNY   51  26  37 S16       29.93R
AURORA         PTSUNNY   50  25  37 S16       29.92S
FRONT RANGE AP PTSUNNY   52  27  37 S20       29.94R
ERIE MUNI ARPT FAIR      46  25  44 N8        29.98F
BOULDER MUN AP CLOUDY    45  27  49 N9        29.93S
CENTENNIAL     PTSUNNY   47  25  42 S15G29    29.92R
BROOMFIELD     PTSUNNY   45  27  49 NW15      29.92F
FORT COLLINS   FAIR      45  27  49 N13       29.94F
LONGMONT       PTSUNNY   48  27  44 N13       29.95F
$$

COZ041-046-047-076>085-087-088-201600-
...PIKES PEAK/PALMER DIVIDE AND SOUTHERN FOOTHILLS...

CITY           SKY/WX    TMP DP  RH WIND       PRES   REMARKS
COLO. SPRINGS  PTSUNNY   44  26  49 SE21G26   29.98S
A. F. ACADEMY  NOT AVBL
SCHRIEVER AFB  NOT AVBL
CHEYENNE MTN   FAIR      39  25  56 S13       29.93S
ELLICOTT       TSTM     N/A N/A N/A SE26G38   29.95F
FALCON         PTSUNNY   39  25  56 SE21G32   29.98F THUNDER
FORT CARSON    PTSUNNY   45  25  45 E14       29.96S
LIMON          LGT RAIN  36  31  82 SE18G30   30.01R
MONUMENT HILL  FAIR      37  25  60 S32G44    29.93S THUNDER
CANON CITY     FAIR      54  28  37 NE23G29   29.90F
WALSENBURG     NOT AVBL
TRINIDAD       CLOUDY    47  31  53 SE12G18   29.96S
$$

COZ042>045-048>051-090-091-201600-
...NORTHEAST COLORADO...

CITY           SKY/WX    TMP DP  RH WIND       PRES   REMARKS
GREELEY ARPT   FAIR      46  27  47 SE23      29.94S
AKRON          TSTM      40  29  64 SE23G37   30.02F
BURLINGTON     CLOUDY    43  29  57 S37G48    30.07F
WRAY           CLOUDY    45  30  57 SE21G28   30.11S
YUMA           CLOUDY    43  28  56 SE28G40   30.05S
STERLING       NOT AVBL
HOLYOKE        PTSUNNY   43  32  65 SE18      30.13R
FORT MORGAN    FAIR      43  26  50 SE20G32   30.00F
$$

COZ086-089-092>099-201600-
...SOUTHEAST COLORADO...

CITY           SKY/WX    TMP DP  RH WIND       PRES   REMARKS
PUEBLO         PTSUNNY   51  28  41 E23G38    29.90S
LA JUNTA       CLOUDY    49  28  44 SE23G33   29.99S
LAMAR          CLOUDY    47  27  45 SE17G31   30.06R
SPRINGFIELD      N/A     41  33  73 SE26G37   30.08R
$$




USA.gov is the U.S. government's official web portal to all federal, state and local government web resources and services.